Location: Bieg
(49.3499°N, 10.3835°E)
Time: 10:20:52
(UTC+00:00)

Cosmos 1833 Rocket - Pass Details

Date: 23 May 2024
Orbit: 831 x 839 km, 71.0° (Epoch: 19 June)

Event Time Altitude Azimuth Distance (km) Brightness Sun altitude
Exits shadow 00:08:16 18° 245° (WSW) 1,922 4.2 -19.0°
Maximum altitude 00:12:01 42° 308° (NW) 1,177 3.6 -18.9°
Drops below altitude 10° 00:17:21 10° 19° (NNE) 2,455 6.4 -18.7°
Sets 00:19:56 0° 26° (NNE) 3,393 7.4 -18.5°
